BEIDOU-3 M6 (C24)

Last updated on Sat Aug 15 2026 00:03:26 GMT+0000 (Coordinated Universal Time)

1 43582U 18062B 26224.35105707 -.00000002 00000+0 00000+0 0 9994 2 43582 54.0849 180.3846 0005666 15.9822 343.9867 1.86228106 54681
UTC large
Height (km)
Speed (km/s)
/
Latitude / Longitude
Inclination (degrees)
Orbital Period (minutes)
Azimuth
Elevation
Range (km)
Doppler Factor

Next 0 passes for location: London (51.5072 / 0.1276)

No passes found over London.
BEIDOU-3 M6 (C24)